Poplar Bluff, MO

7:45 AM CST on December 03, 2016 (GMT -0600)
Poplar Bluff Municipal

Weather History for KPOF - January, 2014

Change the Weather History Date:

Thursday, January 23, 2014

  Actual Average Record
Temperature  
Mean Temperature 21 °F -  
Max Temperature 30 °F 45 °F 68 °F (1933)
Min Temperature 10 °F 24 °F -17 °F (1930)
Degree Days  
Heating Degree Days 44    
Moisture  
Dew Point -3 °F    
Average Humidity 39    
Maximum Humidity 51    
Minimum Humidity 28    
Precipitation  
Precipitation 0.00 in - - ()
Sea Level Pressure  
Sea Level Pressure 30.65 in    
Wind  
Wind Speed 13 mph (NNW)    
Max Wind Speed 21 mph    
Max Gust Speed 26 mph    
Visibility 10 miles    
Events      
Averages and records for this station are not official NWS values.
T = Trace of Precipitation, MM = Missing Value Source: NWS Daily Summary

Daily Weather History Graph

Daily Weather History Graph

Search for Another Location

Airport or City:

Trip Planner

Search our weather history database for the weather conditions in past years. The results will help you decide how hot, cold, wet, or windy it might be!

Date:

Astronomy

Jan. 23, 2014 Rise Set
Actual Time 7:09 AM CST 5:17 PM CST
Civil Twilight 6:41 AM CST 5:44 PM CST
Nautical Twilight 6:10 AM CST 6:16 PM CST
Astronomical Twilight 5:39 AM CST 6:47 PM CST
Moon No Moon Rise 10:56 AM CST (1/23)
Length of Visible Light 11h 03m
Length of Day
10h 07m
Waning Gibbous, 55% of the Moon is Illuminated
Jan 23
Waning Gibbous
Jan 23
Last Quarter
Jan 30
New
Feb 6
First Quarter
Feb 14
Full

Hourly Weather History & Observations

Time (CST) Temp. Windchill Dew Point Humidity Pressure Visibility Wind Dir Wind Speed Gust Speed Precip Events Conditions
12:53 AM 30.0 °F 20.5 °F 10.9 °F 45% 30.29 in 10.0 mi NNW 11.5 mph 21.9 mph N/A   Clear
1:53 AM 28.9 °F 17.7 °F 10.0 °F 45% 30.34 in 10.0 mi NNW 15.0 mph - N/A   Clear
2:53 AM 28.0 °F 15.7 °F 7.0 °F 41% 30.38 in 10.0 mi NNW 17.3 mph - N/A   Clear
3:53 AM 25.0 °F 12.6 °F 1.0 °F 36% 30.42 in 10.0 mi NNW 15.0 mph - N/A   Clear
4:53 AM 21.0 °F 5.4 °F 1.0 °F 42% 30.47 in 10.0 mi North 20.7 mph 26.5 mph N/A   Clear
5:53 AM 19.0 °F 3.2 °F -0.9 °F 42% 30.52 in 10.0 mi NNW 19.6 mph 26.5 mph N/A   Clear
6:53 AM 16.0 °F 0.1 °F -0.9 °F 47% 30.57 in 10.0 mi North 17.3 mph - N/A   Clear
7:53 AM 15.1 °F 0.5 °F -0.0 °F 51% 30.63 in 10.0 mi North 13.8 mph - N/A   Clear
8:53 AM 15.1 °F -0.6 °F -5.1 °F 41% 30.67 in 10.0 mi North 16.1 mph 25.3 mph N/A   Clear
9:53 AM 16.0 °F 0.6 °F -5.1 °F 39% 30.71 in 10.0 mi North 16.1 mph 21.9 mph N/A   Clear
10:53 AM 18.0 °F 5.4 °F -5.1 °F 36% 30.73 in 10.0 mi North 11.5 mph - N/A   Clear
11:53 AM 18.0 °F 4.2 °F -6.0 °F 35% 30.72 in 10.0 mi North 13.8 mph - N/A   Clear
12:53 PM 21.0 °F 9.3 °F -6.0 °F 30% 30.69 in 10.0 mi North 11.5 mph 17.3 mph N/A   Clear
1:53 PM 21.0 °F 11.4 °F -8.0 °F 28% 30.69 in 10.0 mi NNW 8.1 mph - N/A   Clear
2:53 PM 21.9 °F 11.7 °F -7.1 °F 28% 30.70 in 10.0 mi NW 9.2 mph - N/A   Clear
3:53 PM 24.1 °F 13.1 °F -5.1 °F 28% 30.70 in 10.0 mi NNW 11.5 mph - N/A   Clear
4:53 PM 21.0 °F 8.1 °F -6.0 °F 30% 30.72 in 10.0 mi NNW 13.8 mph - N/A   Clear
5:53 PM 18.0 °F 6.9 °F -6.0 °F 35% 30.76 in 10.0 mi NNW 9.2 mph - N/A   Clear
6:53 PM 16.0 °F 6.3 °F -5.1 °F 39% 30.78 in 10.0 mi NNW 6.9 mph - N/A   Clear
7:53 PM 15.1 °F 4.2 °F -5.1 °F 41% 30.79 in 10.0 mi NNW 8.1 mph - N/A   Clear
8:53 PM 12.9 °F 3.8 °F -4.0 °F 47% 30.80 in 10.0 mi NW 5.8 mph - N/A   Clear
9:53 PM 12.0 °F 4.1 °F -5.1 °F 46% 30.80 in 10.0 mi NW 4.6 mph - N/A   Clear
10:53 PM 12.0 °F 4.1 °F -4.0 °F 49% 30.81 in 10.0 mi West 4.6 mph - N/A   Clear
11:53 PM 10.9 °F 2.9 °F -6.0 °F 47% 30.80 in 10.0 mi WNW 4.6 mph - N/A   Clear